When you browse on this site, cookies collect data to enhance your experience and personalize the content and advertising you see.
Visit our Privacy Policy to learn more. By continuing to use the site, you agree to this use of cookies and data.
  • In Sweden
  • List of Countries
  • For 7 days
  • Water Temperature
  • Satellite Maps
  • Weather Map
  • Weather Widgets
  • user-avatar
    Login

    Hourly Weather Pontypridd

    Today, 23 March, Saturday

    Time Temperature Precipitation Wind Pressure Humidity
    00:00 +9°C° 0 mm 3 mps 761 mmHg 94%
    01:00 +9°C° 0 mm 3 mps 761 mmHg 92%
    02:00 +8°C° 0 mm 3 mps 761 mmHg 90%
    03:00 +8°C° 0 mm 3 mps 762 mmHg 88%
    04:00 +7°C° 0 mm 3 mps 762 mmHg 86%
    05:00 +7°C° 0 mm 3 mps 762 mmHg 84%
    06:00 +5°C° 0 mm 4 mps 762 mmHg 82%
    07:00 +6°C° 0 mm 4 mps 763 mmHg 80%
    08:00 +6°C° 0 mm 4 mps 763 mmHg 77%
    09:00 +7°C° 0 mm 5 mps 763 mmHg 75%
    10:00 +7°C° 0 mm 5 mps 764 mmHg 72%
    11:00 +8°C° 0 mm 4 mps 764 mmHg 70%
    12:00 +10°C° 0 mm 4 mps 764 mmHg 67%
    13:00 +10°C° 0 mm 4 mps 764 mmHg 67%
    14:00 +10°C° 0 mm 4 mps 763 mmHg 66%
    15:00 +11°C° 0 mm 4 mps 763 mmHg 66%
    16:00 +10°C° 0 mm 4 mps 763 mmHg 70%
    17:00 +9°C° 0 mm 3 mps 763 mmHg 73%
    18:00 +9°C° 0 mm 3 mps 763 mmHg 77%
    19:00 +8°C° 0 mm 3 mps 763 mmHg 76%
    20:00 +7°C° 0 mm 3 mps 764 mmHg 75%
    21:00 +5°C° 0 mm 4 mps 764 mmHg 74%
    22:00 +5°C° 0 mm 3 mps 764 mmHg 74%
    23:00 +5°C° 0 mm 3 mps 764 mmHg 74%

    Tomorrow, 24 March, Sunday

    Time Temperature Precipitation Wind Pressure Humidity
    00:00 +5°C° 0 mm 3 mps 764 mmHg 75%
    01:00 +5°C° 0 mm 3 mps 764 mmHg 77%
    02:00 +6°C° 0 mm 2 mps 763 mmHg 80%
    03:00 +6°C° 0 mm 2 mps 763 mmHg 83%
    04:00 +5°C° 0 mm 2 mps 763 mmHg 84%
    05:00 +5°C° 0 mm 2 mps 763 mmHg 86%
    06:00 +4°C° 0 mm 2 mps 763 mmHg 88%
    07:00 +6°C° 0 mm 2 mps 764 mmHg 82%
    08:00 +7°C° 0 mm 2 mps 764 mmHg 76%
    09:00 +8°C° 0 mm 2 mps 765 mmHg 70%
    10:00 +9°C° 0 mm 2 mps 765 mmHg 64%
    11:00 +10°C° 0 mm 2 mps 765 mmHg 59%
    12:00 +11°C° 0 mm 3 mps 764 mmHg 54%
    13:00 +11°C° 0 mm 3 mps 764 mmHg 55%
    14:00 +11°C° 0 mm 4 mps 764 mmHg 56%
    15:00 +10°C° 0 mm 5 mps 764 mmHg 58%
    16:00 +8°C° 0 mm 5 mps 764 mmHg 62%
    17:00 +7°C° 0 mm 4 mps 764 mmHg 66%
    18:00 +6°C° 0 mm 4 mps 764 mmHg 70%
    19:00 +5°C° 0 mm 4 mps 764 mmHg 74%
    20:00 +4°C° 0 mm 3 mps 765 mmHg 78%
    21:00 +3°C° 0 mm 3 mps 765 mmHg 82%
    22:00 +3°C° 0 mm 3 mps 765 mmHg 83%
    23:00 +3°C° 0 mm 3 mps 765 mmHg 84%

    Day after tomorrow, 25 March, Monday

    Time Temperature Precipitation Wind Pressure Humidity
    00:00 +3°C° 0 mm 3 mps 765 mmHg 84%
    01:00 +3°C° 0 mm 3 mps 765 mmHg 86%
    02:00 +3°C° 0 mm 3 mps 765 mmHg 88%
    03:00 +3°C° 0 mm 3 mps 765 mmHg 90%
    04:00 +3°C° 0 mm 3 mps 765 mmHg 90%
    05:00 +3°C° 0 mm 3 mps 765 mmHg 91%
    06:00 +3°C° 0 mm 3 mps 765 mmHg 91%
    07:00 +4°C° 0 mm 3 mps 765 mmHg 85%
    08:00 +5°C° 0 mm 3 mps 766 mmHg 80%
    09:00 +8°C° 0 mm 3 mps 766 mmHg 74%
    10:00 +9°C° 0 mm 3 mps 766 mmHg 71%
    11:00 +9°C° 0 mm 2 mps 766 mmHg 68%
    12:00 +10°C° 0 mm 2 mps 766 mmHg 65%
    13:00 +11°C° 0 mm 1 mps 766 mmHg 67%
    14:00 +11°C° 0 mm 1 mps 766 mmHg 69%
    15:00 +11°C° 0 mm 1 mps 766 mmHg 71%
    16:00 +10°C° 0 mm 1 mps 766 mmHg 73%
    17:00 +10°C° 0 mm 1 mps 766 mmHg 76%
    18:00 +10°C° 0 mm 1 mps 766 mmHg 78%
    19:00 +9°C° 0 mm 1 mps 766 mmHg 80%
    20:00 +8°C° 0 mm 1 mps 767 mmHg 82%
    21:00 +8°C° 0 mm 1 mps 767 mmHg 84%
    22:00 +6°C° 0 mm 2 mps 767 mmHg 85%
    23:00 +5°C° 0 mm 2 mps 767 mmHg 87%

    26 March, Tuesday

    Time Temperature Precipitation Wind Pressure Humidity
    00:00 +4°C° 0 mm 2 mps 767 mmHg 89%
    01:00 +5°C° 0 mm 1 mps 767 mmHg 90%
    02:00 +5°C° 0 mm 1 mps 767 mmHg 90%
    03:00 +5°C° 0 mm 1 mps 767 mmHg 91%
    04:00 +4°C° 0 mm 1 mps 767 mmHg 91%
    05:00 +4°C° 0 mm 1 mps 767 mmHg 91%
    06:00 +4°C° 0 mm 1 mps 767 mmHg 91%
    07:00 +6°C° 0 mm 1 mps 767 mmHg 85%
    08:00 +7°C° 0 mm 1 mps 767 mmHg 80%
    09:00 +9°C° 0 mm 1 mps 768 mmHg 75%
    10:00 +10°C° 0 mm 1 mps 767 mmHg 72%
    11:00 +10°C° 0 mm 2 mps 767 mmHg 68%
    12:00 +12°C° 0 mm 2 mps 767 mmHg 65%
    13:00 +12°C° 0 mm 2 mps 767 mmHg 65%
    14:00 +12°C° 0 mm 2 mps 767 mmHg 65%
    15:00 +12°C° 0 mm 3 mps 766 mmHg 65%
    16:00 +12°C° 0 mm 2 mps 766 mmHg 70%
    17:00 +10°C° 0 mm 2 mps 766 mmHg 75%
    18:00 +9°C° 0 mm 2 mps 766 mmHg 80%
    19:00 +8°C° 0 mm 2 mps 766 mmHg 84%
    20:00 +7°C° 0 mm 2 mps 766 mmHg 87%
    21:00 +6°C° 0 mm 2 mps 767 mmHg 91%
    22:00 +6°C° 0 mm 2 mps 767 mmHg 92%
    23:00 +6°C° 0 mm 1 mps 766 mmHg 92%

    27 March, Wednesday

    Time Temperature Precipitation Wind Pressure Humidity
    00:00 +6°C° 0 mm 1 mps 766 mmHg 92%
    01:00 +6°C° 0 mm 1 mps 766 mmHg 92%
    02:00 +6°C° 0 mm 1 mps 766 mmHg 91%
    03:00 +5°C° 0 mm 1 mps 766 mmHg 90%
    04:00 +5°C° 0 mm 1 mps 766 mmHg 90%
    05:00 +4°C° 0 mm 2 mps 766 mmHg 90%
    06:00 +4°C° 0 mm 2 mps 766 mmHg 90%
    07:00 +6°C° 0 mm 2 mps 766 mmHg 85%
    08:00 +7°C° 0 mm 2 mps 766 mmHg 80%
    09:00 +9°C° 0 mm 2 mps 767 mmHg 76%
    10:00 +12°C° 0 mm 2 mps 767 mmHg 71%
    11:00 +13°C° 0 mm 2 mps 767 mmHg 67%
    12:00 +14°C° 0 mm 1 mps 767 mmHg 63%
    13:00 +15°C° 0 mm 2 mps 766 mmHg 62%
    14:00 +15°C° 0 mm 2 mps 766 mmHg 61%
    15:00 +16°C° 0 mm 2 mps 766 mmHg 60%
    16:00 +15°C° 0 mm 2 mps 766 mmHg 66%
    17:00 +14°C° 0 mm 2 mps 766 mmHg 71%
    18:00 +13°C° 0 mm 2 mps 765 mmHg 77%
    19:00 +10°C° 0 mm 2 mps 766 mmHg 80%
    20:00 +10°C° 0 mm 1 mps 766 mmHg 83%
    21:00 +9°C° 0 mm 1 mps 766 mmHg 87%
    22:00 +8°C° 0 mm 2 mps 766 mmHg 88%
    23:00 +7°C° 0 mm 2 mps 766 mmHg 89%

    28 March, Thursday

    Time Temperature Precipitation Wind Pressure Humidity
    00:00 +7°C° 0 mm 2 mps 766 mmHg 91%
    01:00 +7°C° 0 mm 2 mps 766 mmHg 91%
    02:00 +7°C° 0 mm 2 mps 766 mmHg 90%
    03:00 +6°C° 0 mm 2 mps 766 mmHg 90%
    04:00 +6°C° 0 mm 2 mps 766 mmHg 90%
    05:00 +6°C° 0 mm 2 mps 766 mmHg 90%
    06:00 +5°C° 0 mm 2 mps 766 mmHg 89%
    07:00 +7°C° 0 mm 2 mps 766 mmHg 84%
    08:00 +9°C° 0 mm 2 mps 766 mmHg 78%
    09:00 +11°C° 0 mm 1 mps 766 mmHg 73%
    10:00 +12°C° 0 mm 1 mps 766 mmHg 70%
    11:00 +14°C° 0 mm 1 mps 766 mmHg 68%
    12:00 +15°C° 0 mm 1 mps 766 mmHg 65%
    13:00 +15°C° 0 mm 1 mps 766 mmHg 65%
    14:00 +16°C° 0 mm 1 mps 765 mmHg 64%
    15:00 +16°C° 0 mm 1 mps 765 mmHg 64%
    16:00 +15°C° 0 mm 1 mps 765 mmHg 69%
    17:00 +14°C° 0 mm 1 mps 765 mmHg 74%
    18:00 +13°C° 0 mm 1 mps 765 mmHg 79%
    19:00 +12°C° 0 mm 1 mps 765 mmHg 82%
    20:00 +11°C° 0 mm 1 mps 765 mmHg 85%
    21:00 +9°C° 0 mm 0 mps 765 mmHg 88%
    22:00 +9°C° 0 mm 0 mps 765 mmHg 89%
    23:00 +8°C° 0 mm 0 mps 765 mmHg 90%
    Show more